| time (UTC) | temp F | wind direction | speed knots | gust knots | rain 1hr in | rain 24hr in | rain mn in | humidity % | barometer mb |
| 20260504045321 | 46 | 139 | 0.0 | 0.9 | 0.00 | 0.00 | 0.00 | 59 | 1015.7 |
| 20260504044818 | 46 | 113 | 0.9 | 0.9 | 0.00 | 0.00 | 0.00 | 59 | 1015.7 |
| 20260504044315 | 46 | 56 | 0.0 | 0.9 | 0.00 | 0.00 | 0.00 | 59 | 1015.8 |
| 20260504043812 | 46 | 73 | 0.0 | 0.0 | 0.00 | 0.00 | 0.00 | 59 | 1015.6 |
| 20260504043309 | 46 | 185 | 0.9 | 1.7 | 0.00 | 0.00 | 0.00 | 59 | 1015.9 |
| 20260504042807 | 46 | 18 | 0.0 | 0.0 | 0.00 | 0.00 | 0.00 | 58 | 1015.7 |
| 20260504042304 | 46 | 163 | 0.9 | 1.7 | 0.00 | 0.00 | 0.00 | 58 | 1015.4 |
| 20260504041759 | 46 | 70 | 0.0 | 0.0 | 0.00 | 0.00 | 0.00 | 58 | 1015.6 |
| 20260504041255 | 46 | 70 | 0.0 | 0.9 | 0.00 | 0.00 | 0.00 | 57 | 1015.6 |
| 20260504040752 | 46 | 72 | 0.0 | 0.0 | 0.00 | 0.00 | 0.00 | 57 | 1015.5 |
| 20260504040249 | 46 | 70 | 0.0 | 0.0 | 0.00 | 0.00 | 0.00 | 57 | 1015.7 |
| 20260504035745 | 46 | 72 | 0.0 | 0.0 | 0.00 | 0.00 | 0.00 | 58 | 1015.7 |
| 20260504035242 | 47 | 72 | 0.0 | 0.0 | 0.00 | 0.00 | 0.00 | 57 | 1015.7 |
| 20260504034740 | 46 | 98 | 0.0 | 0.0 | 0.00 | 0.00 | 0.00 | 57 | 1015.7 |
| 20260504034237 | 46 | 100 | 0.0 | 0.0 | 0.00 | 0.00 | 0.00 | 58 | 1015.8 |
| 20260504033735 | 46 | 100 | 0.0 | 0.0 | 0.00 | 0.00 | 0.00 | 59 | 1015.8 |
| 20260504033232 | 46 | 100 | 0.0 | 0.0 | 0.00 | 0.00 | 0.00 | 59 | 1015.8 |
| 20260504032729 | 46 | 100 | 0.0 | 0.0 | 0.00 | 0.00 | 0.00 | 58 | 1015.7 |
| 20260504032226 | 46 | 101 | 0.0 | 0.0 | 0.00 | 0.00 | 0.00 | 58 | 1015.7 |
| 20260504031722 | 47 | 101 | 0.0 | 0.0 | 0.00 | 0.00 | 0.00 | 58 | 1015.7 |
| 20260504031220 | 47 | 101 | 0.0 | 0.0 | 0.00 | 0.00 | 0.00 | 57 | 1015.7 |
| 20260504030716 | 48 | 101 | 0.0 | 0.0 | 0.00 | 0.00 | 0.00 | 55 | 1015.7 |
| 20260504030213 | 48 | 100 | 0.0 | 0.0 | 0.00 | 0.00 | 0.00 | 55 | 1015.8 |
| 20260504025709 | 48 | 83 | 0.0 | 0.0 | 0.00 | 0.00 | 0.00 | 54 | 1015.8 |
| 20260504025206 | 48 | 84 | 0.0 | 0.0 | 0.00 | 0.00 | 0.00 | 54 | 1015.9 |
| 20260504024704 | 48 | 88 | 0.0 | 0.9 | 0.00 | 0.00 | 0.00 | 55 | 1015.9 |
| 20260504024200 | 49 | 100 | 0.0 | 0.0 | 0.00 | 0.00 | 0.00 | 54 | 1016.1 |
| 20260504023656 | 48 | 127 | 0.9 | 0.9 | 0.00 | 0.00 | 0.00 | 54 | 1016.0 |
| 20260504023152 | 49 | 110 | 0.0 | 0.0 | 0.00 | 0.00 | 0.00 | 54 | 1015.9 |
| 20260504022649 | 49 | 114 | 0.0 | 0.0 | 0.00 | 0.00 | 0.00 | 52 | 1015.8 |
| 20260504022144 | 49 | 47 | 0.0 | 0.0 | 0.00 | 0.00 | 0.00 | 53 | 1015.9 |
| 20260504021643 | 48 | 66 | 0.0 | 0.0 | 0.00 | 0.00 | 0.00 | 54 | 1015.9 |
| 20260504021139 | 48 | 66 | 0.0 | 0.0 | 0.00 | 0.00 | 0.00 | 54 | 1016.1 |
| 20260504020637 | 48 | 67 | 0.0 | 0.0 | 0.00 | 0.00 | 0.00 | 55 | 1016.1 |
| 20260504020132 | 47 | 76 | 0.0 | 0.0 | 0.00 | 0.00 | 0.00 | 56 | 1016.2 |
| 20260504015629 | 48 | 78 | 0.0 | 0.0 | 0.00 | 0.00 | 0.00 | 55 | 1016.0 |
| 20260504015126 | 48 | 78 | 0.0 | 0.0 | 0.00 | 0.00 | 0.00 | 54 | 1016.0 |
| 20260504014621 | 48 | 78 | 0.0 | 0.0 | 0.00 | 0.00 | 0.00 | 54 | 1016.2 |
| 20260504014119 | 49 | 78 | 0.0 | 0.0 | 0.00 | 0.00 | 0.00 | 53 | 1015.8 |
| 20260504013616 | 49 | 71 | 0.0 | 0.0 | 0.00 | 0.00 | 0.00 | 52 | 1016.0 |
| 20260504013113 | 49 | 66 | 0.0 | 0.0 | 0.00 | 0.00 | 0.00 | 54 | 1015.9 |
| 20260504012610 | 50 | 67 | 0.0 | 0.0 | 0.00 | 0.00 | 0.00 | 52 | 1015.8 |
| 20260504012108 | 50 | 66 | 0.0 | 0.0 | 0.00 | 0.00 | 0.00 | 52 | 1015.8 |
| 20260504011605 | 50 | 97 | 0.0 | 0.0 | 0.00 | 0.00 | 0.00 | 51 | 1015.7 |
| 20260504011101 | 51 | 37 | 0.0 | 0.0 | 0.00 | 0.00 | 0.00 | 51 | 1015.6 |
| 20260504010556 | 51 | 17 | 0.0 | 0.0 | 0.00 | 0.00 | 0.00 | 49 | 1015.7 |
| 20260504010053 | 51 | 50 | 0.0 | 0.9 | 0.00 | 0.00 | 0.00 | 49 | 1015.8 |
| 20260504005550 | 51 | 198 | 0.9 | 0.9 | 0.00 | 0.00 | 0.00 | 48 | 1015.5 |
| 20260504005047 | 51 | 41 | 0.0 | 0.0 | 0.00 | 0.00 | 0.00 | 49 | 1015.7 |
| 20260504004545 | 52 | 82 | 0.0 | 0.0 | 0.00 | 0.00 | 0.00 | 48 | 1015.7 |
| 20260504004042 | 52 | 44 | 0.0 | 0.0 | 0.00 | 0.00 | 0.00 | 48 | 1015.6 |
| 20260504003538 | 52 | 332 | 0.9 | 0.9 | 0.00 | 0.00 | 0.00 | 47 | 1015.7 |
| 20260504003035 | 53 | 273 | 0.9 | 1.7 | 0.00 | 0.00 | 0.00 | 47 | 1015.7 |
| 20260504002532 | 53 | 316 | 3.5 | 5.2 | 0.00 | 0.00 | 0.00 | 47 | 1015.7 |
| 20260504002029 | 53 | 311 | 0.0 | 0.9 | 0.00 | 0.00 | 0.00 | 46 | 1015.5 |
| 20260504001527 | 53 | 29 | 0.0 | 0.0 | 0.00 | 0.00 | 0.00 | 47 | 1015.7 |
| 20260504001023 | 53 | 66 | 0.0 | 0.0 | 0.00 | 0.00 | 0.00 | 46 | 1015.7 |
| 20260504000520 | 53 | 239 | 0.9 | 0.9 | 0.00 | 0.00 | 0.00 | 45 | 1015.5 |
| 20260504000017 | 54 | 95 | 0.9 | 0.9 | 0.00 | 0.00 | 0.00 | 45 | 1015.5 |
| 20260503235515 | 54 | 143 | 0.9 | 1.7 | 0.00 | 0.00 | 0.00 | 45 | 1015.4 |
| 20260503235011 | 54 | 303 | 3.5 | 6.1 | 0.00 | 0.00 | 0.00 | 45 | 1015.5 |
| 20260503234509 | 55 | 44 | 0.9 | 0.9 | 0.00 | 0.00 | 0.00 | 44 | 1015.5 |
| 20260503234008 | 55 | 285 | 4.3 | 6.1 | 0.00 | 0.00 | 0.00 | 43 | 1015.7 |
| 20260503233503 | 55 | 232 | 4.3 | 6.1 | 0.00 | 0.00 | 0.00 | 43 | 1015.6 |
| 20260503232959 | 55 | 345 | 3.5 | 6.1 | 0.00 | 0.00 | 0.00 | 43 | 1015.6 |
| 20260503232456 | 56 | 282 | 1.7 | 2.6 | 0.00 | 0.00 | 0.00 | 43 | 1015.7 |
| 20260503231954 | 56 | 274 | 2.6 | 2.6 | 0.00 | 0.00 | 0.00 | 43 | 1015.7 |
| 20260503231452 | 56 | 217 | 0.9 | 1.7 | 0.00 | 0.00 | 0.00 | 43 | 1015.6 |
| 20260503230948 | 56 | 303 | 1.7 | 3.5 | 0.00 | 0.00 | 0.00 | 43 | 1015.6 |
| 20260503230445 | 56 | 336 | 2.6 | 3.5 | 0.00 | 0.00 | 0.00 | 42 | 1015.7 |
| 20260503225942 | 56 | 262 | 1.7 | 1.7 | 0.00 | 0.00 | 0.00 | 42 | 1015.6 |
| 20260503225439 | 57 | 208 | 0.9 | 0.9 | 0.00 | 0.00 | 0.00 | 43 | 1015.6 |
| 20260503224934 | 57 | 300 | 4.3 | 5.2 | 0.00 | 0.00 | 0.00 | 41 | 1015.8 |
| 20260503224432 | 56 | 72 | 0.9 | 1.7 | 0.00 | 0.00 | 0.00 | 43 | 1015.6 |
| 20260503223929 | 56 | 282 | 4.3 | 6.1 | 0.00 | 0.00 | 0.00 | 41 | 1015.8 |
| 20260503223427 | 57 | 255 | 1.7 | 2.6 | 0.00 | 0.00 | 0.00 | 42 | 1015.9 |
| 20260503222922 | 57 | 298 | 5.2 | 7.0 | 0.00 | 0.00 | 0.00 | 40 | 1015.8 |
| 20260503222421 | 57 | 218 | 2.6 | 2.6 | 0.00 | 0.00 | 0.00 | 41 | 1015.9 |
| 20260503221919 | 57 | 273 | 5.2 | 6.1 | 0.00 | 0.00 | 0.00 | 40 | 1015.7 |
| 20260503221417 | 57 | 286 | 1.7 | 3.5 | 0.00 | 0.00 | 0.00 | 40 | 1015.7 |
| 20260503220913 | 58 | 286 | 7.8 | 9.6 | 0.00 | 0.00 | 0.00 | 38 | 1015.9 |
| 20260503220410 | 57 | 263 | 2.6 | 2.6 | 0.00 | 0.00 | 0.00 | 42 | 1015.9 |
| 20260503215907 | 56 | 315 | 5.2 | 6.1 | 0.00 | 0.00 | 0.00 | 41 | 1015.8 |
| 20260503215404 | 56 | 295 | 2.6 | 3.5 | 0.00 | 0.00 | 0.00 | 40 | 1016.0 |
| 20260503214901 | 57 | 167 | 2.6 | 2.6 | 0.00 | 0.00 | 0.00 | 43 | 1015.8 |
| 20260503214359 | 58 | 299 | 5.2 | 7.8 | 0.00 | 0.00 | 0.00 | 39 | 1015.8 |
| 20260503213856 | 58 | 321 | 7.8 | 9.6 | 0.00 | 0.00 | 0.00 | 39 | 1015.8 |
| 20260503213354 | 59 | 352 | 1.7 | 1.7 | 0.00 | 0.00 | 0.00 | 40 | 1015.6 |
| 20260503212850 | 59 | 259 | 7.0 | 9.6 | 0.00 | 0.00 | 0.00 | 38 | 1015.4 |
| 20260503212348 | 57 | 323 | 1.7 | 3.5 | 0.00 | 0.00 | 0.00 | 40 | 1015.8 |
| 20260503211845 | 57 | 354 | 1.7 | 2.6 | 0.00 | 0.00 | 0.00 | 40 | 1015.6 |
| 20260503211342 | 59 | 322 | 2.6 | 3.5 | 0.00 | 0.00 | 0.00 | 39 | 1015.8 |
| 20260503210837 | 58 | 247 | 5.2 | 7.0 | 0.00 | 0.00 | 0.00 | 39 | 1015.8 |
| 20260503210335 | 57 | 224 | 1.7 | 2.6 | 0.00 | 0.00 | 0.00 | 40 | 1015.9 |
| 20260503205829 | 57 | 299 | 4.3 | 5.2 | 0.00 | 0.00 | 0.00 | 40 | 1015.8 |
| 20260503205326 | 57 | 303 | 4.3 | 7.0 | 0.00 | 0.00 | 0.00 | 39 | 1016.0 |
| 20260503204823 | 58 | 223 | 3.5 | 5.2 | 0.00 | 0.00 | 0.00 | 40 | 1016.0 |
| 20260503204320 | 57 | 318 | 3.5 | 5.2 | 0.00 | 0.00 | 0.00 | 40 | 1016.2 |
| 20260503203817 | 57 | 289 | 8.7 | 12.2 | 0.00 | 0.00 | 0.00 | 40 | 1016.1 |
| 20260503203315 | 57 | 288 | 3.5 | 3.5 | 0.00 | 0.00 | 0.00 | 41 | 1016.1 |
| 20260503202811 | 58 | 122 | 0.9 | 0.9 | 0.00 | 0.00 | 0.00 | 39 | 1016.2 |
| 20260503202310 | 57 | 242 | 2.6 | 5.2 | 0.00 | 0.00 | 0.00 | 42 | 1016.0 |
| 20260503201808 | 57 | 265 | 7.0 | 7.8 | 0.00 | 0.00 | 0.00 | 40 | 1016.1 |
| 20260503201304 | 56 | 231 | 3.5 | 5.2 | 0.00 | 0.00 | 0.00 | 41 | 1016.4 |
| 20260503200801 | 56 | 293 | 1.7 | 2.6 | 0.00 | 0.00 | 0.00 | 42 | 1016.3 |
| 20260503200257 | 56 | 318 | 11.3 | 14.8 | 0.00 | 0.00 | 0.00 | 40 | 1016.1 |
| 20260503195755 | 56 | 268 | 2.6 | 3.5 | 0.00 | 0.00 | 0.00 | 41 | 1016.3 |
| 20260503195252 | 57 | 320 | 5.2 | 7.8 | 0.00 | 0.00 | 0.00 | 39 | 1016.5 |
| 20260503194749 | 56 | 321 | 5.2 | 9.6 | 0.00 | 0.00 | 0.00 | 41 | 1016.6 |
| 20260503194244 | 55 | 263 | 7.8 | 8.7 | 0.00 | 0.00 | 0.00 | 40 | 1016.5 |
| 20260503193741 | 56 | 279 | 7.0 | 8.7 | 0.00 | 0.00 | 0.00 | 39 | 1017.0 |
| 20260503193237 | 58 | 296 | 5.2 | 6.1 | 0.00 | 0.00 | 0.00 | 38 | 1016.9 |
| 20260503192732 | 57 | 218 | 6.1 | 8.7 | 0.00 | 0.00 | 0.00 | 39 | 1017.0 |
| 20260503192228 | 56 | 98 | 3.5 | 5.2 | 0.00 | 0.00 | 0.00 | 40 | 1017.1 |
| 20260503191725 | 57 | 275 | 4.3 | 5.2 | 0.00 | 0.00 | 0.00 | 41 | 1016.9 |
| 20260503191222 | 56 | 230 | 1.7 | 3.5 | 0.00 | 0.00 | 0.00 | 43 | 1017.1 |
| 20260503190719 | 56 | 329 | 7.8 | 9.6 | 0.00 | 0.00 | 0.00 | 41 | 1017.2 |
| 20260503190215 | 56 | 288 | 3.5 | 3.5 | 0.00 | 0.00 | 0.00 | 42 | 1017.1 |
| 20260503185713 | 56 | 264 | 5.2 | 7.0 | 0.00 | 0.00 | 0.00 | 41 | 1017.3 |
| 20260503185208 | 56 | 310 | 2.6 | 2.6 | 0.00 | 0.00 | 0.00 | 41 | 1017.3 |
| 20260503184703 | 55 | 248 | 5.2 | 7.0 | 0.00 | 0.00 | 0.00 | 43 | 1017.3 |
| 20260503184200 | 55 | 283 | 4.3 | 7.0 | 0.00 | 0.00 | 0.00 | 43 | 1017.6 |
| 20260503183656 | 55 | 22 | 3.5 | 5.2 | 0.00 | 0.00 | 0.00 | 42 | 1017.4 |
| 20260503183153 | 55 | 301 | 2.6 | 2.6 | 0.00 | 0.00 | 0.00 | 44 | 1017.3 |
| 20260503182651 | 55 | 252 | 5.2 | 7.0 | 0.00 | 0.00 | 0.00 | 42 | 1017.6 |
| 20260503182150 | 55 | 226 | 3.5 | 3.5 | 0.00 | 0.00 | 0.00 | 44 | 1017.9 |
| 20260503181646 | 55 | 324 | 3.5 | 3.5 | 0.00 | 0.00 | 0.00 | 41 | 1017.8 |
| 20260503181143 | 54 | 269 | 4.3 | 5.2 | 0.00 | 0.00 | 0.00 | 43 | 1017.9 |
| 20260503180640 | 54 | 280 | 5.2 | 8.7 | 0.00 | 0.00 | 0.00 | 42 | 1018.0 |
| 20260503180138 | 55 | 65 | 0.0 | 0.9 | 0.00 | 0.00 | 0.00 | 43 | 1018.0 |
| 20260503175635 | 56 | 247 | 4.3 | 5.2 | 0.00 | 0.00 | 0.00 | 41 | 1018.0 |
| 20260503175132 | 55 | 189 | 3.5 | 3.5 | 0.00 | 0.00 | 0.00 | 44 | 1018.0 |
| 20260503174628 | 54 | 271 | 2.6 | 3.5 | 0.00 | 0.00 | 0.00 | 46 | 1017.9 |
| 20260503174126 | 55 | 341 | 1.7 | 2.6 | 0.00 | 0.00 | 0.00 | 41 | 1017.9 |
| 20260503173620 | 52 | 265 | 4.3 | 7.0 | 0.00 | 0.00 | 0.00 | 44 | 1018.0 |
| 20260503173117 | 53 | 248 | 5.2 | 7.8 | 0.00 | 0.00 | 0.00 | 42 | 1018.3 |
| 20260503172614 | 55 | 307 | 6.1 | 7.0 | 0.00 | 0.00 | 0.00 | 40 | 1018.2 |
| 20260503172112 | 53 | 333 | 1.7 | 2.6 | 0.00 | 0.00 | 0.00 | 45 | 1018.2 |
| 20260503171608 | 54 | 345 | 3.5 | 7.0 | 0.00 | 0.00 | 0.00 | 41 | 1018.2 |
| 20260503171105 | 53 | 251 | 2.6 | 3.5 | 0.00 | 0.00 | 0.00 | 43 | 1018.4 |
| 20260503170601 | 52 | 296 | 3.5 | 6.1 | 0.00 | 0.00 | 0.00 | 43 | 1018.4 |
| 20260503150954 | 49 | 220 | 2.6 | 3.5 | 0.00 | 0.00 | 0.00 | 51 | 1019.0 |
| 20260503150450 | 49 | 214 | 3.5 | 6.1 | 0.00 | 0.00 | 0.00 | 49 | 1019.3 |
| 20260503131337 | 43 | 286 | 3.5 | 3.5 | 0.00 | 0.00 | 0.00 | 65 | 1019.7 |
| 20260503130830 | 42 | 254 | 2.6 | 2.6 | 0.00 | 0.00 | 0.00 | 66 | 1019.5 |
| 20260503130327 | 42 | 302 | 4.3 | 5.2 | 0.00 | 0.00 | 0.00 | 66 | 1019.7 |
| 20260503110720 | 33 | 73 | 0.0 | 0.0 | 0.00 | 0.00 | 0.00 | 87 | 1018.8 |
| 20260503110217 | 32 | 92 | 0.0 | 0.0 | 0.00 | 0.00 | 0.00 | 88 | 1018.7 |
| 20260503100143 | 31 | 22 | 0.0 | 0.0 | 0.00 | 0.00 | 0.00 | 88 | 1018.1 |
| 20260503081538 | 32 | 8 | 0.9 | 0.9 | 0.00 | 0.00 | 0.00 | 86 | 1018.1 |
| 20260503081036 | 32 | 356 | 0.9 | 0.9 | 0.00 | 0.00 | 0.00 | 86 | 1018.1 |
| 20260503080532 | 32 | 357 | 0.9 | 0.9 | 0.00 | 0.00 | 0.00 | 87 | 1018.0 |
| 20260503072506 | 35 | 341 | 0.9 | 0.9 | 0.00 | 0.00 | 0.00 | 83 | 1017.7 |
| 20260503072003 | 34 | 305 | 0.0 | 0.9 | 0.00 | 0.00 | 0.00 | 81 | 1017.8 |
| 20260503071500 | 34 | 353 | 0.0 | 0.0 | 0.00 | 0.00 | 0.00 | 81 | 1017.7 |
| 20260503070955 | 35 | 353 | 0.0 | 0.0 | 0.00 | 0.00 | 0.00 | 81 | 1017.6 |
| 20260503070453 | 35 | 347 | 0.0 | 0.9 | 0.00 | 0.00 | 0.00 | 80 | 1017.7 |
| 20260503054906 | 34 | 337 | 1.7 | 1.7 | 0.00 | 0.00 | 0.00 | 80 | 1017.9 |
| 20260503054402 | 34 | 347 | 0.0 | 0.9 | 0.00 | 0.00 | 0.00 | 79 | 1017.8 |
| 20260503053900 | 35 | 344 | 0.9 | 0.9 | 0.00 | 0.00 | 0.00 | 79 | 1017.8 |
| 20260503053358 | 33 | 315 | 0.9 | 1.7 | 0.00 | 0.00 | 0.00 | 83 | 1017.8 |
| 20260503052854 | 33 | 340 | 0.9 | 1.7 | 0.00 | 0.00 | 0.00 | 85 | 1017.8 |
| 20260503052351 | 33 | 322 | 0.9 | 0.9 | 0.00 | 0.00 | 0.00 | 85 | 1018.0 |
| 20260503051847 | 33 | 320 | 0.9 | 1.7 | 0.00 | 0.00 | 0.00 | 85 | 1018.0 |
| 20260503051344 | 33 | 358 | 0.9 | 0.9 | 0.00 | 0.00 | 0.00 | 85 | 1018.1 |
| 20260503050841 | 33 | 358 | 0.9 | 0.9 | 0.00 | 0.00 | 0.00 | 85 | 1018.0 |
| 20260503050337 | 33 | 358 | 0.9 | 0.9 | 0.00 | 0.00 | 0.00 | 84 | 1018.1 |
| 20260503045835 | 33 | 358 | 0.0 | 0.9 | 0.00 | 0.00 | 0.00 | 84 | 1018.2 |